User: anonymous   Login
Location: Charleston
(38.3500°N, 81.6330°W)
Time: 07:23:28
(UTC-04:00)
Language:

Cosmos 1812 Rocket - Orbit

View from above orbital plane
View from above orbital plane
View from above satellite
View from above satellite

Ground track
Ground track

The orbit data is extracted from the following two-line orbital elements,

1 17296U 87003B   16179.49521442  .00000098  00000-0  91327-5 0  9992
2 17296  82.5290 356.5303 0017930 313.4666  46.5056 14.83126369590549
Epoch (UTC): 27 June 2016 11:53:06
Eccentricity: 0.0017930
inclination: 82.5290°
perigee height: 607 km
apogee height: 632 km
right ascension of ascending node: 356.5303°
argument of perigee: 313.4666°
revolutions per day: 14.83126369
mean anomaly at epoch: 46.5056°
orbit number at epoch: 59054

The dashed part of the orbit path shows where the satellite is in the earth's shadow,  

DLR